Time,TemperatureF,DewpointF,PressureIn,WindDirection,WindDirectionDegrees,WindSpeedMPH,WindSpeedGustMPH,Humidity,HourlyPrecipIn,Conditions,Clouds,dailyrainin,SoftwareType,DateUTC
2013-02-18 00:00:00,18.2,2.7,30.00,NNW,336,8.0,20.0,50,0.00,,---,0.00,VWS V14.00,2013-02-18 05:00:00,
2013-02-18 00:02:00,18.2,2.7,30.00,NNW,328,12.0,12.0,50,0.00,,---,0.00,VWS V14.00,2013-02-18 05:02:00,
2013-02-18 00:07:00,18.2,2.7,30.01,NW,325,6.0,13.0,50,0.00,,---,0.00,VWS V14.00,2013-02-18 05:07:00,
2013-02-18 00:12:00,18.3,2.8,30.01,NNW,340,7.0,14.0,50,0.00,,---,0.00,VWS V14.00,2013-02-18 05:12:00,
2013-02-18 00:17:00,18.3,2.3,30.01,NW,309,5.0,18.0,49,0.00,,---,0.00,VWS V14.00,2013-02-18 05:17:00,
2013-02-18 00:22:00,18.4,2.9,30.01,NW,315,12.0,20.0,50,0.00,,---,0.00,VWS V14.00,2013-02-18 05:22:00,
2013-02-18 00:27:00,18.4,2.9,30.01,NW,325,13.0,13.0,50,0.00,,---,0.00,VWS V14.00,2013-02-18 05:27:00,
2013-02-18 00:32:00,18.5,2.5,30.01,NNW,344,7.0,21.0,49,0.00,,---,0.00,VWS V14.00,2013-02-18 05:32:00,
2013-02-18 00:37:00,18.4,2.9,30.01,NW,323,7.0,21.0,50,0.00,,---,0.00,VWS V14.00,2013-02-18 05:37:00,
2013-02-18 00:42:00,18.4,2.9,30.01,North,349,6.0,21.0,50,0.00,,---,0.00,VWS V14.00,2013-02-18 05:42:00,
2013-02-18 00:47:00,18.5,2.5,30.02,North,350,12.0,23.0,49,0.00,,---,0.00,VWS V14.00,2013-02-18 05:47:00,
2013-02-18 00:52:00,18.5,2.5,30.02,NW,323,9.0,23.0,49,0.00,,---,0.00,VWS V14.00,2013-02-18 05:52:00,
2013-02-18 00:57:00,18.4,2.4,30.02,NNW,328,4.0,12.0,49,0.00,,---,0.00,VWS V14.00,2013-02-18 05:57:00,
2013-02-18 01:02:00,18.4,2.4,30.02,NW,315,7.0,12.0,49,0.00,,---,0.00,VWS V14.00,2013-02-18 06:02:00,
2013-02-18 01:07:00,18.4,2.9,30.02,NNW,338,9.0,17.0,50,0.00,,---,0.00,VWS V14.00,2013-02-18 06:07:00,
2013-02-18 01:12:00,18.4,2.9,30.03,NW,319,11.0,17.0,50,0.00,,---,0.00,VWS V14.00,2013-02-18 06:12:00,
2013-02-18 01:17:00,18.4,2.4,30.03,NNW,329,10.0,20.0,49,0.00,,---,0.00,VWS V14.00,2013-02-18 06:17:00,
2013-02-18 01:22:00,18.4,2.4,30.03,NNW,333,13.0,20.0,49,0.00,,---,0.00,VWS V14.00,2013-02-18 06:22:00,
2013-02-18 01:27:00,18.5,2.5,30.02,NNW,344,6.0,16.0,49,0.00,,---,0.00,VWS V14.00,2013-02-18 06:27:00,
2013-02-18 01:32:00,18.4,2.4,30.03,NNW,333,6.0,16.0,49,0.00,,---,0.00,VWS V14.00,2013-02-18 06:32:00,
2013-02-18 01:37:00,18.3,2.8,30.03,North,355,10.0,16.0,50,0.00,,---,0.00,VWS V14.00,2013-02-18 06:37:00,
2013-02-18 01:42:00,18.2,2.7,30.03,NNW,328,8.0,16.0,50,0.00,,---,0.00,VWS V14.00,2013-02-18 06:42:00,
2013-02-18 01:47:00,18.3,2.8,30.03,NNW,339,6.0,18.0,50,0.00,,---,0.00,VWS V14.00,2013-02-18 06:47:00,
2013-02-18 01:52:00,18.3,2.8,30.03,NW,313,13.0,18.0,50,0.00,,---,0.00,VWS V14.00,2013-02-18 06:52:00,
2013-02-18 01:57:00,18.3,2.8,30.03,NW,317,14.0,14.0,50,0.00,,---,0.00,VWS V14.00,2013-02-18 06:57:00,
2013-02-18 02:02:00,18.2,2.7,30.04,NW,326,17.0,17.0,50,0.00,,---,0.00,VWS V14.00,2013-02-18 07:02:00,
2013-02-18 02:07:00,18.2,2.7,30.04,NNW,344,8.0,19.0,50,0.00,,---,0.00,VWS V14.00,2013-02-18 07:07:00,
2013-02-18 02:12:00,18.2,3.1,30.04,NNW,330,15.0,21.0,51,0.00,,---,0.00,VWS V14.00,2013-02-18 07:12:00,
2013-02-18 02:17:00,18.2,3.1,30.04,NNW,329,12.0,21.0,51,0.00,,---,0.00,VWS V14.00,2013-02-18 07:17:00,
2013-02-18 02:22:00,18.2,3.1,30.04,NNW,343,8.0,21.0,51,0.00,,---,0.00,VWS V14.00,2013-02-18 07:22:00,
2013-02-18 02:27:00,18.2,2.7,30.04,NNW,337,8.0,15.0,50,0.00,,---,0.00,VWS V14.00,2013-02-18 07:27:00,
2013-02-18 02:32:00,18.1,2.6,30.05,NNW,338,8.0,15.0,50,0.00,,---,0.00,VWS V14.00,2013-02-18 07:32:00,
2013-02-18 02:37:00,18.1,3.0,30.05,NW,326,8.0,15.0,51,0.00,,---,0.00,VWS V14.00,2013-02-18 07:37:00,
2013-02-18 02:42:00,18.0,2.9,30.05,NW,325,8.0,15.0,51,0.00,,---,0.00,VWS V14.00,2013-02-18 07:42:00,
2013-02-18 02:47:00,18.0,2.9,30.05,NNW,346,5.0,15.0,51,0.00,,---,0.00,VWS V14.00,2013-02-18 07:47:00,
2013-02-18 02:52:00,18.0,2.9,30.05,NNW,330,6.0,15.0,51,0.00,,---,0.00,VWS V14.00,2013-02-18 07:52:00,
2013-02-18 02:57:00,17.9,2.8,30.06,NNW,340,1.0,11.0,51,0.00,,---,0.00,VWS V14.00,2013-02-18 07:57:00,
2013-02-18 03:02:00,17.8,3.2,30.06,NNW,342,1.0,11.0,52,0.00,,---,0.00,VWS V14.00,2013-02-18 08:02:00,
2013-02-18 03:07:00,17.7,3.5,30.05,North,351,7.0,11.0,53,0.00,,---,0.00,VWS V14.00,2013-02-18 08:07:00,
2013-02-18 03:12:00,17.8,3.2,30.06,NNW,348,10.0,17.0,52,0.00,,---,0.00,VWS V14.00,2013-02-18 08:12:00,
2013-02-18 03:17:00,17.8,3.6,30.06,NW,325,5.0,17.0,53,0.00,,---,0.00,VWS V14.00,2013-02-18 08:17:00,
2013-02-18 03:22:00,17.8,3.2,30.06,NNW,346,5.0,17.0,52,0.00,,---,0.00,VWS V14.00,2013-02-18 08:22:00,
2013-02-18 03:27:00,17.7,3.5,30.07,NW,316,8.0,8.0,53,0.00,,---,0.00,VWS V14.00,2013-02-18 08:27:00,
2013-02-18 03:32:00,17.7,3.5,30.07,NW,326,1.0,10.0,53,0.00,,---,0.00,VWS V14.00,2013-02-18 08:32:00,
2013-02-18 03:37:00,17.7,3.5,30.07,NNW,328,9.0,13.0,53,0.00,,---,0.00,VWS V14.00,2013-02-18 08:37:00,
2013-02-18 03:43:00,17.8,3.2,30.07,NNW,328,9.0,18.0,52,0.00,,---,0.00,VWS V14.00,2013-02-18 08:43:00,
2013-02-18 03:48:00,17.7,3.5,30.07,NW,307,16.0,18.0,53,0.00,,---,0.00,VWS V14.00,2013-02-18 08:48:00,
2013-02-18 03:53:00,17.7,3.5,30.08,NNW,327,7.0,18.0,53,0.00,,---,0.00,VWS V14.00,2013-02-18 08:53:00,
2013-02-18 03:58:00,17.7,3.1,30.08,NNW,334,7.0,8.0,52,0.00,,---,0.00,VWS V14.00,2013-02-18 08:58:00,
2013-02-18 04:03:00,17.7,3.5,30.09,NW,306,6.0,8.0,53,0.00,,---,0.00,VWS V14.00,2013-02-18 09:03:00,
2013-02-18 04:08:00,17.7,3.1,30.09,NNW,342,5.0,10.0,52,0.00,,---,0.00,VWS V14.00,2013-02-18 09:08:00,
2013-02-18 04:13:00,17.7,3.5,30.08,NW,319,2.0,11.0,53,0.00,,---,0.00,VWS V14.00,2013-02-18 09:13:00,
2013-02-18 04:18:00,17.6,3.4,30.09,NNW,332,14.0,14.0,53,0.00,,---,0.00,VWS V14.00,2013-02-18 09:18:00,
2013-02-18 04:23:00,17.6,3.0,30.09,NNW,338,0.0,14.0,52,0.00,,---,0.00,VWS V14.00,2013-02-18 09:23:00,
2013-02-18 04:28:00,17.6,3.4,30.09,North,349,4.0,11.0,53,0.00,,---,0.00,VWS V14.00,2013-02-18 09:28:00,
2013-02-18 04:33:00,17.6,3.0,30.10,NNW,333,5.0,11.0,52,0.00,,---,0.00,VWS V14.00,2013-02-18 09:33:00,
2013-02-18 04:38:00,17.6,3.4,30.10,NW,326,2.0,12.0,53,0.00,,---,0.00,VWS V14.00,2013-02-18 09:38:00,
2013-02-18 04:43:00,17.6,3.4,30.10,NW,311,13.0,18.0,53,0.00,,---,0.00,VWS V14.00,2013-02-18 09:43:00,
2013-02-18 04:48:00,17.5,3.3,30.10,NNW,329,8.0,18.0,53,0.00,,---,0.00,VWS V14.00,2013-02-18 09:48:00,
2013-02-18 04:53:00,17.5,3.3,30.11,NNW,327,5.0,18.0,53,0.00,,---,0.00,VWS V14.00,2013-02-18 09:53:00,
2013-02-18 04:58:00,17.5,3.3,30.11,NNW,328,7.0,14.0,53,0.00,,---,0.00,VWS V14.00,2013-02-18 09:58:00,
2013-02-18 05:03:00,17.5,3.3,30.12,NNW,333,4.0,14.0,53,0.00,,---,0.00,VWS V14.00,2013-02-18 10:03:00,
2013-02-18 05:08:00,17.4,3.6,30.12,NNW,327,4.0,14.0,54,0.00,,---,0.00,VWS V14.00,2013-02-18 10:08:00,
2013-02-18 05:13:00,17.4,3.2,30.12,NNW,327,5.0,14.0,53,0.00,,---,0.00,VWS V14.00,2013-02-18 10:13:00,
2013-02-18 05:18:00,17.3,3.5,30.12,North,5,4.0,14.0,54,0.00,,---,0.00,VWS V14.00,2013-02-18 10:18:00,
2013-02-18 05:23:00,17.3,3.5,30.13,North,355,0.0,14.0,54,0.00,,---,0.00,VWS V14.00,2013-02-18 10:23:00,
2013-02-18 05:28:00,17.4,3.2,30.14,NNW,333,11.0,13.0,53,0.00,,---,0.00,VWS V14.00,2013-02-18 10:28:00,
2013-02-18 05:33:00,17.4,3.2,30.14,NW,324,11.0,13.0,53,0.00,,---,0.00,VWS V14.00,2013-02-18 10:33:00,
2013-02-18 05:38:00,17.5,3.3,30.15,NNW,336,2.0,13.0,53,0.00,,---,0.00,VWS V14.00,2013-02-18 10:38:00,
2013-02-18 05:43:00,17.4,3.6,30.15,NW,314,15.0,15.0,54,0.00,,---,0.00,VWS V14.00,2013-02-18 10:43:00,
2013-02-18 05:48:00,17.4,3.6,30.15,NNW,330,0.0,15.0,54,0.00,,---,0.00,VWS V14.00,2013-02-18 10:48:00,
2013-02-18 05:53:00,17.4,3.6,30.16,NW,325,7.0,15.0,54,0.00,,---,0.00,VWS V14.00,2013-02-18 10:53:00,
2013-02-18 05:58:00,17.3,3.5,30.16,North,355,9.0,12.0,54,0.00,,---,0.00,VWS V14.00,2013-02-18 10:58:00,
2013-02-18 06:03:00,17.3,3.5,30.16,NNW,333,6.0,12.0,54,0.00,,---,0.00,VWS V14.00,2013-02-18 11:03:00,
2013-02-18 06:08:00,17.3,3.9,30.16,NNW,332,8.0,12.0,55,0.00,,---,0.00,VWS V14.00,2013-02-18 11:08:00,
2013-02-18 06:13:00,17.3,3.9,30.16,NW,323,7.0,12.0,55,0.00,,---,0.00,VWS V14.00,2013-02-18 11:13:00,
2013-02-18 06:18:00,17.3,3.5,30.16,NNW,333,9.0,14.0,54,0.00,,---,0.00,VWS V14.00,2013-02-18 11:18:00,
2013-02-18 06:23:00,17.3,3.9,30.16,NNW,348,9.0,14.0,55,0.00,,---,0.00,VWS V14.00,2013-02-18 11:23:00,
2013-02-18 06:28:00,17.3,3.9,30.17,NNW,342,5.0,9.0,55,0.00,,---,0.00,VWS V14.00,2013-02-18 11:28:00,
2013-02-18 06:33:00,17.3,3.9,30.17,NW,324,9.0,10.0,55,0.00,,---,0.00,VWS V14.00,2013-02-18 11:33:00,
2013-02-18 06:38:00,17.3,3.9,30.17,NNW,338,13.0,19.0,55,0.00,,---,0.00,VWS V14.00,2013-02-18 11:38:00,
2013-02-18 06:43:00,17.3,3.9,30.17,NNW,328,7.0,19.0,55,0.00,,---,0.00,VWS V14.00,2013-02-18 11:43:00,
2013-02-18 06:48:00,17.3,3.9,30.17,NNW,338,6.0,19.0,55,0.00,,---,0.00,VWS V14.00,2013-02-18 11:48:00,
2013-02-18 06:53:00,17.3,3.9,30.18,NNW,341,7.0,19.0,55,0.00,,---,0.00,VWS V14.00,2013-02-18 11:53:00,
2013-02-18 06:58:00,17.3,3.9,30.18,NNW,338,5.0,15.0,55,0.00,,---,0.00,VWS V14.00,2013-02-18 11:58:00,
2013-02-18 07:03:00,17.3,3.9,30.18,NW,319,7.0,15.0,55,0.00,,---,0.00,VWS V14.00,2013-02-18 12:03:00,
2013-02-18 07:08:00,17.3,3.9,30.18,North,360,5.0,15.0,55,0.00,,---,0.00,VWS V14.00,2013-02-18 12:08:00,
2013-02-18 07:13:00,17.4,4.0,30.19,NNW,334,9.0,21.0,55,0.00,,---,0.00,VWS V14.00,2013-02-18 12:13:00,
2013-02-18 07:18:00,17.5,4.1,30.19,NNW,331,5.0,21.0,55,0.00,,---,0.00,VWS V14.00,2013-02-18 12:18:00,
2013-02-18 07:23:00,17.5,4.1,30.19,North,360,1.0,21.0,55,0.00,,---,0.00,VWS V14.00,2013-02-18 12:23:00,
2013-02-18 07:28:00,17.6,4.2,30.19,NNW,340,2.0,7.0,55,0.00,,---,0.00,VWS V14.00,2013-02-18 12:28:00,
2013-02-18 07:33:00,17.7,4.3,30.19,NNW,335,4.0,8.0,55,0.00,,---,0.00,VWS V14.00,2013-02-18 12:33:00,
2013-02-18 07:38:00,17.8,4.4,30.19,NNW,348,4.0,8.0,55,0.00,,---,0.00,VWS V14.00,2013-02-18 12:38:00,
2013-02-18 07:44:00,17.9,4.9,30.19,NNW,327,11.0,13.0,56,0.00,,---,0.00,VWS V14.00,2013-02-18 12:44:00,
2013-02-18 07:49:00,18.0,4.6,30.19,North,5,7.0,19.0,55,0.00,,---,0.00,VWS V14.00,2013-02-18 12:49:00,
2013-02-18 07:54:00,18.1,4.7,30.19,NNE,17,6.0,19.0,55,0.00,,---,0.00,VWS V14.00,2013-02-18 12:54:00,
2013-02-18 07:59:00,18.2,4.8,30.19,North,349,7.0,10.0,55,0.00,,---,0.00,VWS V14.00,2013-02-18 12:59:00,
2013-02-18 08:04:00,18.4,4.9,30.20,NNW,336,7.0,14.0,55,0.00,,---,0.00,VWS V14.00,2013-02-18 13:04:00,
2013-02-18 08:09:00,18.6,5.1,30.20,NW,324,6.0,14.0,55,0.00,,---,0.00,VWS V14.00,2013-02-18 13:09:00,
2013-02-18 08:14:00,18.7,5.2,30.20,NNW,333,6.0,14.0,55,0.00,,---,0.00,VWS V14.00,2013-02-18 13:14:00,
2013-02-18 08:19:00,19.0,5.1,30.20,NNW,328,6.0,14.0,54,0.00,,---,0.00,VWS V14.00,2013-02-18 13:19:00,
2013-02-18 08:24:00,19.1,5.2,30.20,North,360,4.0,17.0,54,0.00,,---,0.00,VWS V14.00,2013-02-18 13:24:00,
2013-02-18 08:29:00,19.2,5.7,30.20,North,5,7.0,11.0,55,0.00,,---,0.00,VWS V14.00,2013-02-18 13:29:00,
2013-02-18 08:34:00,19.4,5.1,30.20,NNW,341,7.0,11.0,53,0.00,,---,0.00,VWS V14.00,2013-02-18 13:34:00,
2013-02-18 08:39:00,19.7,5.3,30.21,NNW,346,6.0,12.0,53,0.00,,---,0.00,VWS V14.00,2013-02-18 13:39:00,
2013-02-18 08:45:00,19.9,5.5,30.20,North,360,2.0,12.0,53,0.00,,---,0.00,VWS V14.00,2013-02-18 13:45:00,
2013-02-18 08:50:00,20.1,5.3,30.21,North,360,4.0,12.0,52,0.00,,---,0.00,VWS V14.00,2013-02-18 13:50:00,
2013-02-18 08:55:00,20.3,5.9,30.21,NNW,342,0.0,12.0,53,0.00,,---,0.00,VWS V14.00,2013-02-18 13:55:00,
2013-02-18 09:00:00,20.6,5.8,30.21,North,355,0.0,5.0,52,0.00,,---,0.00,VWS V14.00,2013-02-18 14:00:00,
2013-02-18 09:05:00,20.9,6.1,30.22,NNW,333,2.0,8.0,52,0.00,,---,0.00,VWS V14.00,2013-02-18 14:05:00,
2013-02-18 09:10:00,21.1,5.8,30.22,NNE,15,6.0,13.0,51,0.00,,---,0.00,VWS V14.00,2013-02-18 14:10:00,
2013-02-18 09:15:00,21.4,6.5,30.23,NNW,339,5.0,13.0,52,0.00,,---,0.00,VWS V14.00,2013-02-18 14:15:00,
2013-02-18 09:20:00,21.7,5.9,30.22,North,350,5.0,13.0,50,0.00,,---,0.00,VWS V14.00,2013-02-18 14:20:00,
2013-02-18 09:25:00,22.0,6.7,30.22,NNW,333,2.0,13.0,51,0.00,,---,0.00,VWS V14.00,2013-02-18 14:25:00,
2013-02-18 09:30:00,22.2,6.8,30.22,NW,319,4.0,10.0,51,0.00,,---,0.00,VWS V14.00,2013-02-18 14:30:00,
2013-02-18 09:35:00,22.4,6.2,30.23,NNW,348,5.0,12.0,49,0.00,,---,0.00,VWS V14.00,2013-02-18 14:35:00,
2013-02-18 09:40:00,22.4,6.6,30.23,North,5,4.0,13.0,50,0.00,,---,0.00,VWS V14.00,2013-02-18 14:40:00,
2013-02-18 09:45:00,22.6,6.3,30.23,North,355,7.0,15.0,49,0.00,,---,0.00,VWS V14.00,2013-02-18 14:45:00,
2013-02-18 09:50:00,22.8,6.5,30.22,NNW,339,2.0,17.0,49,0.00,,---,0.00,VWS V14.00,2013-02-18 14:50:00,
2013-02-18 09:55:00,23.2,6.0,30.22,NNW,347,6.0,17.0,47,0.00,,---,0.00,VWS V14.00,2013-02-18 14:55:00,
2013-02-18 10:00:00,23.5,7.2,30.22,NNW,340,4.0,11.0,49,0.00,,---,0.00,VWS V14.00,2013-02-18 15:00:00,
2013-02-18 10:05:00,23.5,6.7,30.22,NNW,330,9.0,12.0,48,0.00,,---,0.00,VWS V14.00,2013-02-18 15:05:00,
2013-02-18 10:10:00,23.9,6.6,30.22,NNW,333,7.0,12.0,47,0.00,,---,0.00,VWS V14.00,2013-02-18 15:10:00,
2013-02-18 10:15:00,24.1,6.8,30.22,NW,311,7.0,13.0,47,0.00,,---,0.00,VWS V14.00,2013-02-18 15:15:00,
2013-02-18 10:20:00,24.3,7.0,30.23,NW,325,2.0,13.0,47,0.00,,---,0.00,VWS V14.00,2013-02-18 15:20:00,
2013-02-18 10:25:00,24.4,7.1,30.23,NW,315,8.0,13.0,47,0.00,,---,0.00,VWS V14.00,2013-02-18 15:25:00,
2013-02-18 10:30:00,24.8,6.5,30.23,NW,325,9.0,12.0,45,0.00,,---,0.00,VWS V14.00,2013-02-18 15:30:00,
2013-02-18 10:35:00,24.9,6.6,30.23,NNW,327,9.0,12.0,45,0.00,,---,0.00,VWS V14.00,2013-02-18 15:35:00,
2013-02-18 10:40:00,25.1,6.8,30.23,North,350,4.0,12.0,45,0.00,,---,0.00,VWS V14.00,2013-02-18 15:40:00,
2013-02-18 10:45:00,25.5,7.1,30.23,North,351,9.0,12.0,45,0.00,,---,0.00,VWS V14.00,2013-02-18 15:45:00,
2013-02-18 10:51:00,25.9,7.0,30.23,NW,325,4.0,12.0,44,0.00,,---,0.00,VWS V14.00,2013-02-18 15:51:00,
2013-02-18 10:56:00,26.1,6.7,30.23,NNW,333,2.0,13.0,43,0.00,,---,0.00,VWS V14.00,2013-02-18 15:56:00,
2013-02-18 11:01:00,26.4,6.9,30.24,NW,326,7.0,12.0,43,0.00,,---,0.00,VWS V14.00,2013-02-18 16:01:00,
2013-02-18 11:06:00,26.4,6.9,30.23,NNW,335,11.0,12.0,43,0.00,,---,0.00,VWS V14.00,2013-02-18 16:06:00,
2013-02-18 11:11:00,26.8,7.3,30.23,NNW,338,7.0,14.0,43,0.00,,---,0.00,VWS V14.00,2013-02-18 16:11:00,
2013-02-18 11:16:00,27.1,7.1,30.24,NNW,337,11.0,15.0,42,0.00,,---,0.00,VWS V14.00,2013-02-18 16:16:00,
2013-02-18 11:21:00,27.1,7.6,30.24,North,355,6.0,15.0,43,0.00,,---,0.00,VWS V14.00,2013-02-18 16:21:00,
2013-02-18 11:26:00,27.2,7.7,30.23,NNW,340,7.0,15.0,43,0.00,,---,0.00,VWS V14.00,2013-02-18 16:26:00,
2013-02-18 11:31:00,27.5,7.4,30.23,NNW,347,6.0,11.0,42,0.00,,---,0.00,VWS V14.00,2013-02-18 16:31:00,
2013-02-18 11:36:00,27.6,7.5,30.23,NNW,344,6.0,12.0,42,0.00,,---,0.00,VWS V14.00,2013-02-18 16:36:00,
2013-02-18 11:41:00,27.9,7.8,30.23,NNW,337,7.0,13.0,42,0.00,,---,0.00,VWS V14.00,2013-02-18 16:41:00,
2013-02-18 11:46:00,28.0,7.4,30.23,NNW,333,5.0,13.0,41,0.00,,---,0.00,VWS V14.00,2013-02-18 16:46:00,
2013-02-18 11:51:00,28.1,8.0,30.22,NNW,344,12.0,14.0,42,0.00,,---,0.00,VWS V14.00,2013-02-18 16:51:00,
2013-02-18 11:56:00,28.1,8.0,30.22,NNW,329,11.0,11.0,42,0.00,,---,0.00,VWS V14.00,2013-02-18 16:56:00,
2013-02-18 12:01:00,28.5,8.3,30.22,NNW,336,8.0,12.0,42,0.00,,---,0.00,VWS V14.00,2013-02-18 17:01:00,
2013-02-18 12:06:00,28.8,9.1,30.22,NNW,329,5.0,12.0,43,0.00,,---,0.00,VWS V14.00,2013-02-18 17:06:00,
2013-02-18 12:11:00,29.0,8.3,30.22,North,355,9.0,12.0,41,0.00,,---,0.00,VWS V14.00,2013-02-18 17:11:00,
2013-02-18 12:16:00,29.4,9.2,30.22,NNW,331,12.0,12.0,42,0.00,,---,0.00,VWS V14.00,2013-02-18 17:16:00,
2013-02-18 12:21:00,29.2,8.4,30.22,NNW,329,10.0,13.0,41,0.00,,---,0.00,VWS V14.00,2013-02-18 17:21:00,
2013-02-18 12:26:00,29.5,9.8,30.22,NNW,338,5.0,5.0,43,0.00,,---,0.00,VWS V14.00,2013-02-18 17:26:00,
2013-02-18 12:31:00,29.7,8.9,30.22,NNW,328,11.0,14.0,41,0.00,,---,0.00,VWS V14.00,2013-02-18 17:31:00,
2013-02-18 12:36:00,29.7,8.4,30.21,NW,319,9.0,14.0,40,0.00,,---,0.00,VWS V14.00,2013-02-18 17:36:00,
2013-02-18 12:41:00,29.9,9.1,30.21,NW,325,8.0,14.0,41,0.00,,---,0.00,VWS V14.00,2013-02-18 17:41:00,
2013-02-18 12:46:00,29.9,8.5,30.21,NNW,333,9.0,20.0,40,0.00,,---,0.00,VWS V14.00,2013-02-18 17:46:00,
2013-02-18 12:51:00,30.1,9.3,30.21,NW,313,6.0,20.0,41,0.00,,---,0.00,VWS V14.00,2013-02-18 17:51:00,
2013-02-18 12:56:00,30.2,8.8,30.20,NNW,329,11.0,12.0,40,0.00,,---,0.00,VWS V14.00,2013-02-18 17:56:00,
2013-02-18 13:01:00,30.1,8.1,30.20,NNW,340,7.0,17.0,39,0.00,,---,0.00,VWS V14.00,2013-02-18 18:01:00,
2013-02-18 13:06:00,30.3,9.4,30.20,NNW,344,8.0,17.0,41,0.00,,---,0.00,VWS V14.00,2013-02-18 18:06:00,
2013-02-18 13:11:00,30.6,9.7,30.20,NW,319,12.0,17.0,41,0.00,,---,0.00,VWS V14.00,2013-02-18 18:11:00,
2013-02-18 13:16:00,30.5,8.5,30.20,North,350,7.0,21.0,39,0.00,,---,0.00,VWS V14.00,2013-02-18 18:16:00,
2013-02-18 13:21:00,30.7,9.2,30.20,NW,321,12.0,21.0,40,0.00,,---,0.00,VWS V14.00,2013-02-18 18:21:00,
2013-02-18 13:26:00,31.0,9.5,30.19,NNW,330,10.0,16.0,40,0.00,,---,0.00,VWS V14.00,2013-02-18 18:26:00,
2013-02-18 13:31:00,31.0,9.5,30.19,NNW,331,11.0,16.0,40,0.00,,---,0.00,VWS V14.00,2013-02-18 18:31:00,
2013-02-18 13:36:00,31.0,8.4,30.19,NNW,330,10.0,17.0,38,0.00,,---,0.00,VWS V14.00,2013-02-18 18:36:00,
2013-02-18 13:41:00,31.2,9.7,30.19,NW,324,13.0,17.0,40,0.00,,---,0.00,VWS V14.00,2013-02-18 18:41:00,
2013-02-18 13:46:00,31.4,8.7,30.19,NNW,334,12.0,17.0,38,0.00,,---,0.00,VWS V14.00,2013-02-18 18:46:00,
2013-02-18 13:51:00,31.5,8.8,30.19,NW,326,9.0,20.0,38,0.00,,---,0.00,VWS V14.00,2013-02-18 18:51:00,
2013-02-18 13:56:00,31.7,9.0,30.19,NNW,331,9.0,10.0,38,0.00,,---,0.00,VWS V14.00,2013-02-18 18:56:00,
2013-02-18 14:01:00,31.9,8.6,30.19,North,360,8.0,17.0,37,0.00,,---,0.00,VWS V14.00,2013-02-18 19:01:00,
2013-02-18 14:06:00,31.9,9.2,30.18,NW,325,9.0,17.0,38,0.00,,---,0.00,VWS V14.00,2013-02-18 19:06:00,
2013-02-18 14:11:00,32.2,8.9,30.18,NNW,333,11.0,17.0,37,0.00,,---,0.00,VWS V14.00,2013-02-18 19:11:00,
2013-02-18 14:16:00,32.3,9.6,30.18,NW,325,5.0,17.0,38,0.00,,---,0.00,VWS V14.00,2013-02-18 19:16:00,
2013-02-18 14:21:00,32.5,9.1,30.18,NW,317,0.0,17.0,37,0.00,,---,0.00,VWS V14.00,2013-02-18 19:21:00,
2013-02-18 14:26:00,32.7,8.7,30.18,NNW,333,8.0,8.0,36,0.00,,---,0.00,VWS V14.00,2013-02-18 19:26:00,
2013-02-18 14:31:00,32.9,10.1,30.18,NNW,336,9.0,9.0,38,0.00,,---,0.00,VWS V14.00,2013-02-18 19:31:00,
2013-02-18 14:37:00,32.9,10.1,30.18,NW,325,11.0,13.0,38,0.00,,---,0.00,VWS V14.00,2013-02-18 19:37:00,
2013-02-18 14:42:00,32.9,8.3,30.17,NNW,341,4.0,13.0,35,0.00,,---,0.00,VWS V14.00,2013-02-18 19:42:00,
2013-02-18 14:47:00,33.2,8.5,30.17,NW,323,8.0,14.0,35,0.00,,---,0.00,VWS V14.00,2013-02-18 19:47:00,
2013-02-18 14:52:00,33.3,8.6,30.18,NW,307,6.0,14.0,35,0.00,,---,0.00,VWS V14.00,2013-02-18 19:52:00,
2013-02-18 14:57:00,33.4,8.7,30.18,NNW,335,12.0,12.0,35,0.00,,---,0.00,VWS V14.00,2013-02-18 19:57:00,
2013-02-18 15:02:00,33.6,9.5,30.18,NW,310,4.0,12.0,36,0.00,,---,0.00,VWS V14.00,2013-02-18 20:02:00,
2013-02-18 15:07:00,33.8,9.7,30.18,NNW,327,12.0,12.0,36,0.00,,---,0.00,VWS V14.00,2013-02-18 20:07:00,
2013-02-18 15:12:00,33.8,9.1,30.18,NNW,329,6.0,14.0,35,0.00,,---,0.00,VWS V14.00,2013-02-18 20:12:00,
2013-02-18 15:17:00,33.7,10.2,30.19,NNW,327,13.0,14.0,37,0.00,,---,0.00,VWS V14.00,2013-02-18 20:17:00,
2013-02-18 15:22:00,33.9,9.8,30.18,NNW,338,8.0,14.0,36,0.00,,---,0.00,VWS V14.00,2013-02-18 20:22:00,
2013-02-18 15:27:00,34.2,8.8,30.19,NNW,338,7.0,11.0,34,0.00,,---,0.00,VWS V14.00,2013-02-18 20:27:00,
2013-02-18 15:32:00,34.1,8.7,30.18,NW,325,5.0,14.0,34,0.00,,---,0.00,VWS V14.00,2013-02-18 20:32:00,
2013-02-18 15:37:00,34.2,8.8,30.18,NW,320,2.0,14.0,34,0.00,,---,0.00,VWS V14.00,2013-02-18 20:37:00,
2013-02-18 15:42:00,34.4,8.3,30.17,NW,325,2.0,14.0,33,0.00,,---,0.00,VWS V14.00,2013-02-18 20:42:00,
2013-02-18 15:47:00,34.6,8.5,30.17,NNW,329,8.0,14.0,33,0.00,,---,0.00,VWS V14.00,2013-02-18 20:47:00,
2013-02-18 15:52:00,34.5,8.4,30.17,NNW,333,6.0,14.0,33,0.00,,---,0.00,VWS V14.00,2013-02-18 20:52:00,
2013-02-18 15:57:00,34.6,8.5,30.17,North,355,2.0,5.0,33,0.00,,---,0.00,VWS V14.00,2013-02-18 20:57:00,
2013-02-18 16:02:00,34.6,8.5,30.18,NW,317,8.0,10.0,33,0.00,,---,0.00,VWS V14.00,2013-02-18 21:02:00,
2013-02-18 16:08:00,34.5,9.0,30.18,NNW,343,4.0,10.0,34,0.00,,---,0.00,VWS V14.00,2013-02-18 21:08:00,
2013-02-18 16:12:00,34.6,9.1,30.18,North,351,10.0,10.0,34,0.00,,---,0.00,VWS V14.00,2013-02-18 21:12:00,
2013-02-18 16:18:00,34.7,9.2,30.19,NNW,327,5.0,10.0,34,0.00,,---,0.00,VWS V14.00,2013-02-18 21:18:00,
2013-02-18 16:23:00,34.7,9.9,30.19,NW,316,10.0,10.0,35,0.00,,---,0.00,VWS V14.00,2013-02-18 21:23:00,
2013-02-18 16:28:00,34.7,9.2,30.19,NW,315,8.0,10.0,34,0.00,,---,0.00,VWS V14.00,2013-02-18 21:28:00,
2013-02-18 16:33:00,34.6,8.5,30.19,NW,321,4.0,11.0,33,0.00,,---,0.00,VWS V14.00,2013-02-18 21:33:00,
2013-02-18 16:38:00,34.7,8.6,30.18,NNW,348,4.0,11.0,33,0.00,,---,0.00,VWS V14.00,2013-02-18 21:38:00,
2013-02-18 16:43:00,34.7,9.2,30.18,NW,324,9.0,11.0,34,0.00,,---,0.00,VWS V14.00,2013-02-18 21:43:00,
2013-02-18 16:48:00,34.7,8.6,30.18,NNW,328,7.0,11.0,33,0.00,,---,0.00,VWS V14.00,2013-02-18 21:48:00,
2013-02-18 16:53:00,34.7,8.6,30.18,NNW,331,7.0,11.0,33,0.00,,---,0.00,VWS V14.00,2013-02-18 21:53:00,
2013-02-18 16:58:00,34.7,7.9,30.18,NW,323,8.0,10.0,32,0.00,,---,0.00,VWS V14.00,2013-02-18 21:58:00,
2013-02-18 17:03:00,34.8,8.0,30.18,NW,315,8.0,11.0,32,0.00,,---,0.00,VWS V14.00,2013-02-18 22:03:00,
2013-02-18 17:08:00,34.7,7.9,30.18,NW,320,7.0,11.0,32,0.00,,---,0.00,VWS V14.00,2013-02-18 22:08:00,
2013-02-18 17:13:00,34.7,7.9,30.18,NW,320,4.0,11.0,32,0.00,,---,0.00,VWS V14.00,2013-02-18 22:13:00,
2013-02-18 17:18:00,34.6,9.1,30.18,NW,315,5.0,11.0,34,0.00,,---,0.00,VWS V14.00,2013-02-18 22:18:00,
2013-02-18 17:23:00,34.4,8.3,30.18,NW,315,8.0,11.0,33,0.00,,---,0.00,VWS V14.00,2013-02-18 22:23:00,
2013-02-18 17:28:00,34.3,8.2,30.18,NW,315,4.0,5.0,33,0.00,,---,0.00,VWS V14.00,2013-02-18 22:28:00,
2013-02-18 17:33:00,34.1,8.7,30.18,NNW,332,4.0,8.0,34,0.00,,---,0.00,VWS V14.00,2013-02-18 22:33:00,
2013-02-18 17:38:00,33.8,9.1,30.18,NNW,332,2.0,8.0,35,0.00,,---,0.00,VWS V14.00,2013-02-18 22:38:00,
2013-02-18 17:43:00,33.7,9.0,30.18,NNW,332,1.0,8.0,35,0.00,,---,0.00,VWS V14.00,2013-02-18 22:43:00,
2013-02-18 17:48:00,33.6,8.9,30.19,NNW,332,1.0,8.0,35,0.00,,---,0.00,VWS V14.00,2013-02-18 22:48:00,
2013-02-18 17:53:00,33.4,8.7,30.18,NNW,332,0.0,8.0,35,0.00,,---,0.00,VWS V14.00,2013-02-18 22:53:00,
2013-02-18 17:58:00,33.2,9.1,30.19,NNW,332,0.0,2.0,36,0.00,,---,0.00,VWS V14.00,2013-02-18 22:58:00,
2013-02-18 18:03:00,33.0,9.6,30.19,NNW,332,0.0,2.0,37,0.00,,---,0.00,VWS V14.00,2013-02-18 23:03:00,
2013-02-18 18:08:00,32.8,8.2,30.19,NNW,332,0.0,2.0,35,0.00,,---,0.00,VWS V14.00,2013-02-18 23:08:00,
2013-02-18 18:13:00,32.8,8.2,30.19,NNW,332,0.0,2.0,35,0.00,,---,0.00,VWS V14.00,2013-02-18 23:13:00,
2013-02-18 18:18:00,32.7,8.1,30.20,NNW,332,0.0,2.0,35,0.00,,---,0.00,VWS V14.00,2013-02-18 23:18:00,
2013-02-18 18:23:00,32.6,8.0,30.20,NNW,332,0.0,2.0,35,0.00,,---,0.00,VWS V14.00,2013-02-18 23:23:00,
2013-02-18 18:28:00,32.5,7.3,30.20,NNW,332,0.0,0.0,34,0.00,,---,0.00,VWS V14.00,2013-02-18 23:28:00,
2013-02-18 18:33:00,32.4,7.2,30.20,NNW,332,0.0,0.0,34,0.00,,---,0.00,VWS V14.00,2013-02-18 23:33:00,
2013-02-18 18:38:00,32.1,8.8,30.20,NNW,332,0.0,0.0,37,0.00,,---,0.00,VWS V14.00,2013-02-18 23:38:00,
2013-02-18 18:43:00,31.9,8.6,30.20,NNW,332,0.0,0.0,37,0.00,,---,0.00,VWS V14.00,2013-02-18 23:43:00,
2013-02-18 18:48:00,31.6,8.9,30.20,NNW,332,0.0,0.0,38,0.00,,---,0.00,VWS V14.00,2013-02-18 23:48:00,
2013-02-18 18:53:00,31.4,9.3,30.20,NNW,332,0.0,0.0,39,0.00,,---,0.00,VWS V14.00,2013-02-18 23:53:00,
2013-02-18 18:58:00,31.1,9.6,30.20,NNW,332,0.0,0.0,40,0.00,,---,0.00,VWS V14.00,2013-02-18 23:58:00,
2013-02-18 19:03:00,30.8,9.9,30.20,NNW,332,0.0,0.0,41,0.00,,---,0.00,VWS V14.00,2013-02-19 00:03:00,
2013-02-18 19:08:00,30.6,9.7,30.21,NNW,332,0.0,0.0,41,0.00,,---,0.00,VWS V14.00,2013-02-19 00:08:00,
2013-02-18 19:13:00,30.4,10.6,30.20,NNW,332,0.0,0.0,43,0.00,,---,0.00,VWS V14.00,2013-02-19 00:13:00,
2013-02-18 19:18:00,30.1,11.8,30.20,NNW,332,0.0,0.0,46,0.00,,---,0.00,VWS V14.00,2013-02-19 00:18:00,
2013-02-18 19:23:00,29.8,11.6,30.20,NNW,332,0.0,0.0,46,0.00,,---,0.00,VWS V14.00,2013-02-19 00:23:00,
2013-02-18 19:28:00,29.4,12.1,30.20,NNW,332,0.0,0.0,48,0.00,,---,0.00,VWS V14.00,2013-02-19 00:28:00,
2013-02-18 19:33:00,29.1,12.3,30.20,NNW,332,0.0,0.0,49,0.00,,---,0.00,VWS V14.00,2013-02-19 00:33:00,
2013-02-18 19:38:00,28.9,12.1,30.21,NNW,332,0.0,0.0,49,0.00,,---,0.00,VWS V14.00,2013-02-19 00:38:00,
2013-02-18 19:43:00,28.8,12.1,30.20,NNW,332,0.0,0.0,49,0.00,,---,0.00,VWS V14.00,2013-02-19 00:43:00,
2013-02-18 19:49:00,28.7,12.4,30.20,NNW,332,0.0,0.0,50,0.00,,---,0.00,VWS V14.00,2013-02-19 00:49:00,
2013-02-18 19:54:00,28.6,12.3,30.19,NNW,332,0.0,0.0,50,0.00,,---,0.00,VWS V14.00,2013-02-19 00:54:00,
2013-02-18 19:59:00,28.7,11.5,30.20,NNW,332,0.0,0.0,48,0.00,,---,0.00,VWS V14.00,2013-02-19 00:59:00,
2013-02-18 20:04:00,28.7,12.9,30.20,NNW,332,0.0,0.0,51,0.00,,---,0.00,VWS V14.00,2013-02-19 01:04:00,
2013-02-18 20:09:00,28.5,12.7,30.20,NNW,332,0.0,0.0,51,0.00,,---,0.00,VWS V14.00,2013-02-19 01:09:00,
2013-02-18 20:14:00,28.4,13.0,30.20,NNW,332,0.0,0.0,52,0.00,,---,0.00,VWS V14.00,2013-02-19 01:14:00,
2013-02-18 20:19:00,28.3,12.9,30.20,NNW,332,0.0,0.0,52,0.00,,---,0.00,VWS V14.00,2013-02-19 01:19:00,
2013-02-18 20:24:00,28.1,12.8,30.20,NNW,332,0.0,0.0,52,0.00,,---,0.00,VWS V14.00,2013-02-19 01:24:00,
2013-02-18 20:29:00,28.0,13.1,30.20,NNW,332,0.0,0.0,53,0.00,,---,0.00,VWS V14.00,2013-02-19 01:29:00,
2013-02-18 20:34:00,27.8,13.3,30.21,NNW,332,0.0,0.0,54,0.00,,---,0.00,VWS V14.00,2013-02-19 01:34:00,
2013-02-18 20:39:00,27.6,13.1,30.20,NNW,332,0.0,0.0,54,0.00,,---,0.00,VWS V14.00,2013-02-19 01:39:00,
2013-02-18 20:44:00,27.6,13.6,30.20,NNW,332,0.0,0.0,55,0.00,,---,0.00,VWS V14.00,2013-02-19 01:44:00,
2013-02-18 20:49:00,27.7,13.6,30.21,NNW,332,0.0,0.0,55,0.00,,---,0.00,VWS V14.00,2013-02-19 01:49:00,
2013-02-18 20:54:00,27.9,14.2,30.20,NNW,332,0.0,0.0,56,0.00,,---,0.00,VWS V14.00,2013-02-19 01:54:00,
2013-02-18 20:59:00,28.0,13.5,30.21,NNW,332,0.0,0.0,54,0.00,,---,0.00,VWS V14.00,2013-02-19 01:59:00,
2013-02-18 21:04:00,28.2,13.3,30.20,NNW,332,0.0,0.0,53,0.00,,---,0.00,VWS V14.00,2013-02-19 02:04:00,
2013-02-18 21:09:00,28.2,13.7,30.20,NNW,332,0.0,0.0,54,0.00,,---,0.00,VWS V14.00,2013-02-19 02:09:00,
2013-02-18 21:14:00,28.2,14.1,30.19,NNW,332,0.0,0.0,55,0.00,,---,0.00,VWS V14.00,2013-02-19 02:14:00,
2013-02-18 21:19:00,28.1,14.0,30.20,NNW,332,0.0,0.0,55,0.00,,---,0.00,VWS V14.00,2013-02-19 02:19:00,
2013-02-18 21:24:00,28.1,14.0,30.20,NNW,332,0.0,0.0,55,0.00,,---,0.00,VWS V14.00,2013-02-19 02:24:00,
2013-02-18 21:30:00,28.0,14.3,30.21,NNW,332,0.0,0.0,56,0.00,,---,0.00,VWS V14.00,2013-02-19 02:30:00,
2013-02-18 21:35:00,27.8,15.0,30.20,NNW,332,0.0,0.0,58,0.00,,---,0.00,VWS V14.00,2013-02-19 02:35:00,
2013-02-18 21:40:00,27.7,15.6,30.21,NNW,332,0.0,0.0,60,0.00,,---,0.00,VWS V14.00,2013-02-19 02:40:00,
2013-02-18 21:45:00,27.6,15.6,30.20,NNW,332,0.0,0.0,60,0.00,,---,0.00,VWS V14.00,2013-02-19 02:45:00,
2013-02-18 21:50:00,27.5,15.1,30.20,NNW,332,0.0,0.0,59,0.00,,---,0.00,VWS V14.00,2013-02-19 02:50:00,
2013-02-18 21:55:00,27.5,15.1,30.20,NNW,332,0.0,0.0,59,0.00,,---,0.00,VWS V14.00,2013-02-19 02:55:00,
2013-02-18 22:00:00,27.6,15.2,30.20,NNW,332,0.0,0.0,59,0.00,,---,0.00,VWS V14.00,2013-02-19 03:00:00,
2013-02-18 22:05:00,27.6,15.9,30.21,NNW,332,0.0,0.0,61,0.00,,---,0.00,VWS V14.00,2013-02-19 03:05:00,
2013-02-18 22:10:00,27.5,15.8,30.21,NNW,332,0.0,0.0,61,0.00,,---,0.00,VWS V14.00,2013-02-19 03:10:00,
2013-02-18 22:15:00,27.5,16.2,30.21,NNW,332,0.0,0.0,62,0.00,,---,0.00,VWS V14.00,2013-02-19 03:15:00,
2013-02-18 22:20:00,27.4,16.1,30.21,NNW,332,0.0,0.0,62,0.00,,---,0.00,VWS V14.00,2013-02-19 03:20:00,
2013-02-18 22:25:00,27.4,16.1,30.20,NNW,329,0.0,0.0,62,0.00,,---,0.00,VWS V14.00,2013-02-19 03:25:00,
2013-02-18 22:30:00,27.6,15.2,30.20,SSW,212,0.0,3.0,59,0.00,,---,0.00,VWS V14.00,2013-02-19 03:30:00,
2013-02-18 22:35:00,27.9,14.6,30.21,SSW,212,0.0,3.0,57,0.00,,---,0.00,VWS V14.00,2013-02-19 03:35:00,
2013-02-18 22:41:00,28.1,15.2,30.21,SSW,212,0.0,3.0,58,0.00,,---,0.00,VWS V14.00,2013-02-19 03:41:00,
2013-02-18 22:45:00,28.3,14.6,30.21,SSW,207,0.0,3.0,56,0.00,,---,0.00,VWS V14.00,2013-02-19 03:45:00,
2013-02-18 22:51:00,28.5,15.6,30.21,SSW,207,0.0,3.0,58,0.00,,---,0.00,VWS V14.00,2013-02-19 03:51:00,
2013-02-18 22:56:00,28.6,14.9,30.21,SSW,207,0.0,4.0,56,0.00,,---,0.00,VWS V14.00,2013-02-19 03:56:00,
2013-02-18 23:01:00,28.7,14.6,30.21,SSW,207,0.0,0.0,55,0.00,,---,0.00,VWS V14.00,2013-02-19 04:01:00,
2013-02-18 23:06:00,28.8,15.1,30.21,SSW,207,0.0,0.0,56,0.00,,---,0.00,VWS V14.00,2013-02-19 04:06:00,
2013-02-18 23:11:00,28.8,15.5,30.21,SSW,207,0.0,0.0,57,0.00,,---,0.00,VWS V14.00,2013-02-19 04:11:00,
2013-02-18 23:16:00,28.8,15.5,30.21,SSW,207,0.0,2.0,57,0.00,,---,0.00,VWS V14.00,2013-02-19 04:16:00,
2013-02-18 23:21:00,28.8,15.5,30.21,SSW,211,0.0,4.0,57,0.00,,---,0.00,VWS V14.00,2013-02-19 04:21:00,
2013-02-18 23:26:00,29.1,15.0,30.20,SSW,207,2.0,2.0,55,0.00,,---,0.00,VWS V14.00,2013-02-19 04:26:00,
2013-02-18 23:31:00,29.6,14.6,30.20,South,188,0.0,3.0,53,0.00,,---,0.00,VWS V14.00,2013-02-19 04:31:00,
2013-02-18 23:36:00,30.0,14.5,30.20,SW,229,0.0,5.0,52,0.00,,---,0.00,VWS V14.00,2013-02-19 04:36:00,
2013-02-18 23:41:00,30.4,14.4,30.20,SW,229,0.0,5.0,51,0.00,,---,0.00,VWS V14.00,2013-02-19 04:41:00,
2013-02-18 23:46:00,30.8,14.4,30.20,SSW,205,3.0,5.0,50,0.00,,---,0.00,VWS V14.00,2013-02-19 04:46:00,
2013-02-18 23:51:00,31.0,14.6,30.19,South,177,1.0,5.0,50,0.00,,---,0.00,VWS V14.00,2013-02-19 04:51:00,
2013-02-18 23:56:00,31.3,14.4,30.19,South,172,0.0,0.0,49,0.00,,---,0.00,VWS V14.00,2013-02-19 04:56:00,